Location: Condor
(52.3263°N, 114.5541°W)
Time: 14:57:19
(UTC+00:00)

Envisat - Pass Details

Date: 17 June 2023
Orbit: 763 x 764 km, 98.2° (Epoch: 26 September)

Event Time Altitude Azimuth Distance (km) Brightness Sun altitude
Rises 10:20:32 0° 25° (NNE) 3,243 8.3 -6.5°
Reaches altitude 10° 10:23:28 10° 42° (NE) 2,312 7.3 -6.2°
Maximum altitude 10:27:10 20° 89° (E) 1,719 5.4 -5.9°
Drops below altitude 10° 10:30:51 10° 136° (SE) 2,300 5.4 -5.5°
Sets 10:33:45 0° 153° (SSE) 3,221 6.0 -5.3°
